| time (UTC) | temp C | wind direction | speed KPH | gust KPH | rain 1hr cm | rain 24hr cm | rain mn cm | humidity % | barometer mb |
| 20260507021201 | 7 | 228 | 0.0 | 0.0 | 0.00 | 2.01 | 2.01 | 99 | 1011.2 |
| 20260507020701 | 7 | 241 | 0.0 | 0.0 | 0.13 | 2.01 | 2.01 | 99 | 1011.0 |
| 20260507020156 | 7 | 223 | 1.6 | 1.6 | 0.13 | 2.01 | 2.01 | 99 | 1010.9 |
| 20260507015654 | 7 | 219 | 1.6 | 1.6 | 0.18 | 1.98 | 1.98 | 99 | 1010.9 |
| 20260507015151 | 7 | 225 | 0.0 | 1.6 | 0.18 | 1.98 | 1.98 | 99 | 1011.2 |
| 20260507014648 | 7 | 223 | 0.0 | 0.0 | 0.36 | 1.98 | 1.98 | 99 | 1011.0 |
| 20260507014144 | 7 | 226 | 0.0 | 0.0 | 0.18 | 1.96 | 1.96 | 99 | 1011.0 |
| 20260507013641 | 7 | 223 | 0.0 | 0.0 | 0.13 | 1.93 | 1.93 | 99 | 1010.8 |
| 20260507013138 | 7 | 223 | 0.0 | 1.6 | 0.13 | 1.93 | 1.93 | 99 | 1010.8 |
| 20260507012635 | 7 | 223 | 0.0 | 0.0 | 0.30 | 1.93 | 1.93 | 99 | 1010.7 |
| 20260507012130 | 7 | 223 | 0.0 | 0.0 | 0.48 | 1.91 | 1.91 | 99 | 1010.4 |
| 20260507011629 | 7 | 228 | 1.6 | 1.6 | 0.30 | 1.88 | 1.88 | 99 | 1010.4 |
| 20260507011125 | 7 | 231 | 1.6 | 1.6 | 0.30 | 1.85 | 1.85 | 99 | 1010.2 |
| 20260507010620 | 7 | 222 | 1.6 | 1.6 | 0.13 | 1.83 | 1.83 | 99 | 1010.2 |
| 20260507010116 | 8 | 222 | 0.0 | 0.0 | 0.18 | 1.80 | 1.80 | 99 | 1010.0 |
| 20260507005613 | 8 | 223 | 0.0 | 0.0 | 0.30 | 1.80 | 1.80 | 99 | 1010.1 |
| 20260507005109 | 8 | 225 | 0.0 | 1.6 | 0.13 | 1.78 | 1.78 | 99 | 1010.1 |
| 20260507004606 | 8 | 226 | 1.6 | 3.2 | 0.13 | 1.78 | 1.78 | 99 | 1010.0 |
| 20260507004104 | 8 | 224 | 0.0 | 0.0 | 0.00 | 1.75 | 1.75 | 99 | 1009.8 |
| 20260507003600 | 8 | 225 | 0.0 | 0.0 | 0.18 | 1.75 | 1.75 | 99 | 1009.9 |
| 20260507003055 | 8 | 226 | 1.6 | 3.2 | 0.18 | 1.75 | 1.75 | 99 | 1009.8 |
| 20260507002552 | 8 | 223 | 0.0 | 0.0 | 0.00 | 1.73 | 1.73 | 99 | 1009.7 |
| 20260507002047 | 8 | 229 | 1.6 | 3.2 | 0.00 | 1.73 | 1.73 | 99 | 1009.6 |
| 20260507001544 | 8 | 223 | 0.0 | 1.6 | 0.00 | 1.73 | 1.73 | 99 | 1009.6 |
| 20260507001042 | 8 | 224 | 0.0 | 0.0 | 0.00 | 1.73 | 1.73 | 99 | 1009.4 |
| 20260507000538 | 8 | 221 | 1.6 | 1.6 | 0.13 | 1.73 | 1.73 | 99 | 1009.2 |
| 20260507000033 | 8 | 226 | 0.0 | 1.6 | 0.13 | 1.73 | 1.73 | 99 | 1009.2 |
| 20260506235531 | 8 | 224 | 0.0 | 0.0 | 0.00 | 1.70 | 1.70 | 99 | 1009.2 |
| 20260506235027 | 8 | 224 | 0.0 | 0.0 | 0.00 | 1.70 | 1.70 | 99 | 1009.0 |
| 20260506234525 | 8 | 220 | 0.0 | 0.0 | 0.00 | 1.70 | 1.70 | 99 | 1009.0 |
| 20260506234022 | 8 | 221 | 0.0 | 0.0 | 0.00 | 1.70 | 1.70 | 99 | 1009.0 |
| 20260506233518 | 8 | 215 | 0.0 | 1.6 | 0.00 | 1.70 | 1.70 | 99 | 1008.8 |
| 20260506233015 | 8 | 227 | 1.6 | 3.2 | 0.18 | 1.70 | 1.70 | 99 | 1008.9 |
| 20260506232511 | 9 | 205 | 0.0 | 0.0 | 0.18 | 1.70 | 1.70 | 99 | 1008.9 |
| 20260506232007 | 9 | 233 | 1.6 | 3.2 | 0.00 | 1.68 | 1.68 | 99 | 1008.9 |
| 20260506231505 | 9 | 221 | 0.0 | 0.0 | 0.00 | 1.68 | 1.68 | 99 | 1008.8 |
| 20260506231002 | 9 | 224 | 1.6 | 1.6 | 0.00 | 1.68 | 1.68 | 99 | 1008.6 |
| 20260506230458 | 10 | 223 | 0.0 | 0.0 | 0.00 | 1.68 | 1.68 | 99 | 1008.6 |
| 20260506225955 | 10 | 217 | 0.0 | 0.0 | 0.00 | 1.68 | 1.68 | 99 | 1008.6 |
| 20260506225452 | 10 | 223 | 0.0 | 0.0 | 0.00 | 1.68 | 1.68 | 99 | 1008.7 |
| 20260506224948 | 10 | 220 | 0.0 | 0.0 | 0.00 | 1.68 | 1.68 | 99 | 1008.4 |
| 20260506224446 | 10 | 221 | 0.0 | 0.0 | 0.00 | 1.68 | 1.68 | 99 | 1008.2 |
| 20260506223942 | 10 | 233 | 3.2 | 4.8 | 0.00 | 1.68 | 1.68 | 99 | 1008.2 |
| 20260506223438 | 10 | 225 | 0.0 | 0.0 | 0.00 | 1.68 | 1.68 | 99 | 1008.6 |
| 20260506222935 | 11 | 233 | 1.6 | 1.6 | 0.00 | 1.68 | 1.68 | 99 | 1008.2 |
| 20260506222432 | 11 | 237 | 3.2 | 3.2 | 0.00 | 1.68 | 1.68 | 99 | 1008.3 |
| 20260506221929 | 11 | 231 | 1.6 | 3.2 | 0.00 | 1.68 | 1.68 | 99 | 1008.1 |
| 20260506221426 | 11 | 223 | 0.0 | 1.6 | 0.13 | 1.68 | 1.68 | 99 | 1007.8 |
| 20260506220924 | 12 | 220 | 0.0 | 0.0 | 0.61 | 1.68 | 1.68 | 99 | 1007.9 |
| 20260506220419 | 13 | 223 | 1.6 | 1.6 | 0.79 | 1.65 | 1.65 | 99 | 1007.9 |
| 20260506215916 | 14 | 220 | 1.6 | 1.6 | 0.61 | 1.60 | 1.60 | 99 | 1007.8 |
| 20260506215412 | 14 | 220 | 0.0 | 0.0 | 0.30 | 1.55 | 1.55 | 99 | 1007.3 |
| 20260506214908 | 14 | 219 | 0.0 | 0.0 | 0.30 | 1.50 | 1.50 | 99 | 1007.4 |
| 20260506214405 | 15 | 219 | 0.0 | 0.0 | 0.61 | 1.50 | 1.50 | 99 | 1007.4 |
| 20260506213902 | 14 | 219 | 0.0 | 0.0 | 0.61 | 1.47 | 1.47 | 99 | 1007.3 |
| 20260506213400 | 15 | 220 | 0.0 | 0.0 | 0.30 | 1.40 | 1.40 | 99 | 1007.3 |
| 20260506212857 | 15 | 220 | 0.0 | 0.0 | 0.30 | 1.37 | 1.37 | 99 | 1007.5 |
| 20260506212353 | 15 | 220 | 0.0 | 0.0 | 0.30 | 1.35 | 1.35 | 99 | 1007.6 |
| 20260506211848 | 15 | 220 | 0.0 | 0.0 | 0.61 | 1.35 | 1.35 | 99 | 1007.7 |
| 20260506211344 | 15 | 220 | 0.0 | 0.0 | 0.61 | 1.30 | 1.30 | 99 | 1007.6 |
| 20260506210842 | 15 | 224 | 0.0 | 0.0 | 0.48 | 1.24 | 1.24 | 99 | 1007.5 |
| 20260506210338 | 15 | 224 | 0.0 | 0.0 | 0.30 | 1.19 | 1.19 | 99 | 1007.4 |
| 20260506205836 | 15 | 220 | 0.0 | 0.0 | 0.13 | 1.17 | 1.17 | 99 | 1007.5 |
| 20260506205331 | 15 | 219 | 1.6 | 1.6 | 0.00 | 1.14 | 1.14 | 99 | 1007.6 |
| 20260506204828 | 15 | 224 | 0.0 | 0.0 | 0.00 | 1.14 | 1.14 | 99 | 1007.6 |
| 20260506204326 | 15 | 223 | 0.0 | 0.0 | 0.18 | 1.14 | 1.14 | 99 | 1007.5 |
| 20260506203823 | 15 | 221 | 0.0 | 0.0 | 0.18 | 1.14 | 1.14 | 99 | 1007.7 |
| 20260506203320 | 15 | 223 | 0.0 | 0.0 | 0.00 | 1.12 | 1.12 | 99 | 1007.8 |
| 20260506202817 | 15 | 222 | 0.0 | 0.0 | 0.00 | 1.12 | 1.12 | 99 | 1007.6 |
| 20260506202314 | 15 | 222 | 0.0 | 0.0 | 0.13 | 1.12 | 1.12 | 99 | 1007.7 |
| 20260506201810 | 15 | 220 | 0.0 | 0.0 | 0.13 | 1.12 | 1.12 | 99 | 1007.8 |
| 20260506201308 | 15 | 219 | 0.0 | 0.0 | 0.00 | 1.09 | 1.09 | 99 | 1008.1 |
| 20260506200805 | 15 | 219 | 0.0 | 0.0 | 0.00 | 1.09 | 1.09 | 99 | 1008.1 |
| 20260506200301 | 15 | 223 | 0.0 | 0.0 | 0.00 | 1.09 | 1.09 | 99 | 1008.0 |
| 20260506195757 | 15 | 224 | 0.0 | 0.0 | 0.00 | 1.09 | 1.09 | 99 | 1008.0 |
| 20260506195254 | 15 | 223 | 0.0 | 0.0 | 0.18 | 1.09 | 1.09 | 99 | 1008.2 |
| 20260506194751 | 15 | 223 | 0.0 | 0.0 | 0.18 | 1.09 | 1.09 | 99 | 1008.0 |
| 20260506194247 | 15 | 224 | 0.0 | 0.0 | 0.00 | 1.07 | 1.07 | 99 | 1008.3 |
| 20260506193745 | 15 | 224 | 0.0 | 0.0 | 0.00 | 1.07 | 1.07 | 99 | 1008.4 |
| 20260506193242 | 15 | 224 | 0.0 | 0.0 | 0.00 | 1.07 | 1.07 | 99 | 1008.1 |
| 20260506192738 | 15 | 224 | 0.0 | 0.0 | 0.13 | 1.07 | 1.07 | 99 | 1008.6 |
| 20260506192235 | 15 | 224 | 0.0 | 0.0 | 0.13 | 1.07 | 1.07 | 99 | 1008.4 |
| 20260506191732 | 15 | 224 | 0.0 | 0.0 | 0.18 | 1.04 | 1.04 | 99 | 1008.4 |
| 20260506191228 | 15 | 224 | 0.0 | 0.0 | 0.18 | 1.04 | 1.04 | 99 | 1008.7 |
| 20260506190725 | 15 | 224 | 0.0 | 0.0 | 0.30 | 1.04 | 1.04 | 99 | 1008.6 |
| 20260506190222 | 15 | 224 | 0.0 | 0.0 | 0.30 | 1.02 | 1.02 | 99 | 1008.7 |
| 20260506185719 | 15 | 224 | 0.0 | 0.0 | 0.36 | 0.99 | 0.99 | 99 | 1008.7 |
| 20260506185215 | 14 | 224 | 0.0 | 0.0 | 0.30 | 0.97 | 0.97 | 99 | 1008.8 |
| 20260506184713 | 14 | 226 | 0.0 | 0.0 | 0.43 | 0.94 | 0.94 | 99 | 1008.8 |
| 20260506184210 | 14 | 226 | 0.0 | 1.6 | 0.48 | 0.91 | 0.91 | 99 | 1008.8 |
| 20260506183707 | 14 | 224 | 0.0 | 0.0 | 0.48 | 0.86 | 0.86 | 99 | 1008.7 |
| 20260506183202 | 14 | 222 | 0.0 | 0.0 | 0.43 | 0.84 | 0.84 | 99 | 1008.6 |
| 20260506182700 | 14 | 221 | 0.0 | 0.0 | 0.48 | 0.81 | 0.81 | 99 | 1008.6 |
| 20260506182157 | 14 | 218 | 0.0 | 0.0 | 0.48 | 0.76 | 0.76 | 99 | 1008.7 |
| 20260506181655 | 14 | 225 | 0.0 | 0.0 | 0.61 | 0.74 | 0.74 | 99 | 1008.9 |
| 20260506181152 | 13 | 220 | 0.0 | 0.0 | 0.48 | 0.69 | 0.69 | 99 | 1009.0 |
| 20260506180649 | 13 | 214 | 0.0 | 0.0 | 0.48 | 0.64 | 0.64 | 99 | 1009.2 |
| 20260506180145 | 13 | 205 | 0.0 | 0.0 | 0.48 | 0.58 | 0.58 | 99 | 1009.3 |
| 20260506175642 | 13 | 215 | 1.6 | 1.6 | 0.43 | 0.56 | 0.56 | 99 | 1009.3 |
| 20260506175139 | 13 | 212 | 0.0 | 0.0 | 0.30 | 0.51 | 0.51 | 99 | 1009.3 |
| 20260506174631 | 13 | 202 | 0.0 | 0.0 | 0.48 | 0.48 | 0.48 | 99 | 1009.4 |
| 20260506174127 | 13 | 220 | 0.0 | 0.0 | 0.43 | 0.46 | 0.46 | 99 | 1009.6 |
| 20260506173625 | 13 | 221 | 1.6 | 3.2 | 0.30 | 0.43 | 0.43 | 99 | 1009.5 |
| 20260506173121 | 13 | 215 | 0.0 | 0.0 | 0.36 | 0.38 | 0.38 | 99 | 1009.6 |
| 20260506172619 | 13 | 217 | 0.0 | 0.0 | 0.48 | 0.38 | 0.38 | 99 | 1009.5 |
| 20260506172115 | 13 | 221 | 0.0 | 0.0 | 0.13 | 0.33 | 0.33 | 99 | 1009.5 |
| 20260506171613 | 13 | 220 | 0.0 | 0.0 | 0.18 | 0.30 | 0.30 | 99 | 1009.5 |
| 20260506171110 | 13 | 211 | 0.0 | 0.0 | 0.30 | 0.30 | 0.30 | 99 | 1009.9 |
| 20260506170607 | 13 | 206 | 0.0 | 0.0 | 0.30 | 0.28 | 0.28 | 99 | 1009.9 |
| 20260506170105 | 13 | 212 | 0.0 | 0.0 | 0.30 | 0.25 | 0.25 | 99 | 1010.1 |
| 20260506165603 | 13 | 214 | 0.0 | 1.6 | 0.13 | 0.23 | 0.23 | 99 | 1010.0 |
| 20260506165059 | 13 | 212 | 0.0 | 1.6 | 0.18 | 0.20 | 0.20 | 99 | 1010.0 |
| 20260506164556 | 13 | 205 | 0.0 | 0.0 | 0.18 | 0.20 | 0.20 | 99 | 1010.0 |
| 20260506164053 | 13 | 209 | 0.0 | 1.6 | 0.00 | 0.18 | 0.18 | 99 | 1009.9 |
| 20260506163549 | 13 | 214 | 0.0 | 0.0 | 0.13 | 0.18 | 0.18 | 99 | 1009.7 |
| 20260506163045 | 13 | 218 | 0.0 | 0.0 | 0.13 | 0.18 | 0.18 | 99 | 1010.0 |
| 20260506162542 | 13 | 223 | 0.0 | 0.0 | 0.00 | 0.15 | 0.15 | 99 | 1010.4 |
| 20260506162039 | 14 | 225 | 0.0 | 0.0 | 0.18 | 0.15 | 0.15 | 99 | 1010.4 |
| 20260506161537 | 14 | 221 | 0.0 | 0.0 | 0.18 | 0.15 | 0.15 | 99 | 1010.5 |
| 20260506161033 | 14 | 225 | 0.0 | 0.0 | 0.18 | 0.15 | 0.15 | 99 | 1010.5 |
| 20260506160531 | 14 | 228 | 0.0 | 1.6 | 0.13 | 0.13 | 0.13 | 99 | 1011.0 |
| 20260506160028 | 13 | 225 | 0.0 | 0.0 | 0.13 | 0.13 | 0.13 | 99 | 1011.0 |
| 20260506155526 | 13 | 228 | 0.0 | 0.0 | 0.00 | 0.10 | 0.10 | 99 | 1011.0 |
| 20260506153657 | 14 | 222 | 0.0 | 0.0 | 0.13 | 0.08 | 0.08 | 99 | 1011.5 |
| 20260506153154 | 13 | 222 | 0.0 | 0.0 | 0.00 | 0.05 | 0.05 | 98 | 1011.5 |
| 20260506152651 | 13 | 222 | 0.0 | 0.0 | 0.00 | 0.05 | 0.05 | 98 | 1011.3 |
| 20260506152149 | 13 | 222 | 0.0 | 0.0 | 0.18 | 0.05 | 0.05 | 98 | 1011.5 |
| 20260506151648 | 13 | 222 | 0.0 | 0.0 | 0.18 | 0.05 | 0.05 | 98 | 1011.4 |
| 20260506151144 | 13 | 226 | 0.0 | 0.0 | 0.00 | 0.03 | 0.03 | 98 | 1011.2 |
| 20260506150641 | 14 | 226 | 0.0 | 0.0 | 0.00 | 0.03 | 0.03 | 98 | 1011.3 |
| 20260506150138 | 13 | 225 | 0.0 | 0.0 | 0.00 | 0.03 | 0.03 | 98 | 1011.2 |
| 20260506145635 | 13 | 225 | 0.0 | 0.0 | 0.00 | 0.03 | 0.03 | 98 | 1011.4 |
| 20260506145131 | 13 | 221 | 0.0 | 0.0 | 0.00 | 0.03 | 0.03 | 98 | 1011.2 |
| 20260506144629 | 13 | 226 | 0.0 | 0.0 | 0.00 | 0.03 | 0.03 | 99 | 1011.5 |
| 20260506144126 | 13 | 219 | 0.0 | 0.0 | 0.00 | 0.03 | 0.03 | 99 | 1011.2 |
| 20260506143624 | 13 | 219 | 0.0 | 0.0 | 0.00 | 0.03 | 0.03 | 99 | 1011.4 |
| 20260506143121 | 13 | 220 | 0.0 | 0.0 | 0.00 | 0.03 | 0.03 | 99 | 1011.4 |
| 20260506142620 | 13 | 214 | 0.0 | 0.0 | 0.00 | 0.03 | 0.03 | 99 | 1011.4 |
| 20260506142117 | 13 | 202 | 0.0 | 0.0 | 0.00 | 0.03 | 0.03 | 99 | 1011.6 |
| 20260506141614 | 13 | 217 | 0.0 | 0.0 | 0.00 | 0.03 | 0.03 | 99 | 1011.5 |
| 20260506141113 | 13 | 217 | 0.0 | 0.0 | 0.00 | 0.03 | 0.03 | 99 | 1011.3 |
| 20260506140610 | 13 | 219 | 0.0 | 0.0 | 0.00 | 0.03 | 0.03 | 99 | 1011.5 |
| 20260506140107 | 13 | 213 | 0.0 | 0.0 | 0.00 | 0.03 | 0.03 | 99 | 1011.3 |
| 20260506135603 | 13 | 217 | 0.0 | 0.0 | 0.00 | 0.03 | 0.03 | 99 | 1011.4 |
| 20260506135100 | 13 | 217 | 0.0 | 0.0 | 0.00 | 0.03 | 0.03 | 99 | 1011.2 |
| 20260506134556 | 13 | 219 | 0.0 | 0.0 | 0.00 | 0.03 | 0.03 | 99 | 1011.2 |
| 20260506134052 | 13 | 219 | 0.0 | 0.0 | 0.00 | 0.03 | 0.03 | 99 | 1011.5 |
| 20260506133549 | 13 | 220 | 0.0 | 0.0 | 0.00 | 0.03 | 0.03 | 99 | 1011.6 |
| 20260506133047 | 13 | 219 | 0.0 | 0.0 | 0.00 | 0.03 | 0.03 | 99 | 1011.7 |
| 20260506132544 | 13 | 220 | 0.0 | 0.0 | 0.00 | 0.03 | 0.03 | 99 | 1011.8 |
| 20260506132041 | 13 | 222 | 0.0 | 0.0 | 0.00 | 0.03 | 0.03 | 99 | 1011.8 |
| 20260506131538 | 12 | 221 | 0.0 | 0.0 | 0.00 | 0.03 | 0.03 | 99 | 1011.9 |
| 20260506131034 | 13 | 215 | 0.0 | 0.0 | 0.00 | 0.03 | 0.03 | 99 | 1011.9 |
| 20260506130531 | 12 | 215 | 0.0 | 0.0 | 0.00 | 0.03 | 0.03 | 99 | 1011.7 |
| 20260506130029 | 12 | 215 | 0.0 | 0.0 | 0.00 | 0.03 | 0.03 | 99 | 1011.9 |
| 20260506125527 | 12 | 216 | 0.0 | 0.0 | 0.00 | 0.03 | 0.03 | 99 | 1011.8 |
| 20260506125024 | 12 | 216 | 0.0 | 0.0 | 0.00 | 0.03 | 0.03 | 99 | 1011.9 |
| 20260506124522 | 12 | 209 | 0.0 | 0.0 | 0.00 | 0.03 | 0.03 | 99 | 1011.9 |
| 20260506124020 | 12 | 208 | 0.0 | 0.0 | 0.00 | 0.03 | 0.03 | 99 | 1011.8 |
| 20260506123518 | 12 | 208 | 0.0 | 0.0 | 0.00 | 0.03 | 0.03 | 99 | 1011.6 |
| 20260506123015 | 12 | 207 | 0.0 | 0.0 | 0.00 | 0.03 | 0.03 | 99 | 1011.9 |
| 20260506122512 | 12 | 203 | 0.0 | 0.0 | 0.00 | 0.03 | 0.03 | 99 | 1011.7 |
| 20260506122010 | 12 | 203 | 0.0 | 0.0 | 0.00 | 0.03 | 0.03 | 99 | 1011.7 |
| 20260506121507 | 12 | 205 | 0.0 | 0.0 | 0.00 | 0.03 | 0.03 | 99 | 1011.6 |
| 20260506121003 | 12 | 203 | 0.0 | 0.0 | 0.00 | 0.03 | 0.03 | 99 | 1011.6 |
| 20260506120501 | 12 | 209 | 0.0 | 0.0 | 0.00 | 0.03 | 0.03 | 99 | 1012.1 |
| 20260506115958 | 13 | 209 | 0.0 | 0.0 | 0.00 | 0.03 | 0.03 | 99 | 1011.9 |
| 20260506115456 | 13 | 208 | 0.0 | 0.0 | 0.00 | 0.03 | 0.03 | 99 | 1012.2 |
| 20260506114954 | 12 | 208 | 0.0 | 0.0 | 0.00 | 0.03 | 0.03 | 99 | 1012.0 |
| 20260506114451 | 12 | 208 | 0.0 | 0.0 | 0.00 | 0.03 | 0.03 | 99 | 1011.9 |
| 20260506113950 | 12 | 207 | 0.0 | 0.0 | 0.00 | 0.03 | 0.03 | 99 | 1012.1 |
| 20260506113447 | 12 | 220 | 0.0 | 0.0 | 0.00 | 0.03 | 0.03 | 99 | 1012.1 |
| 20260506112943 | 12 | 220 | 0.0 | 0.0 | 0.00 | 0.03 | 0.03 | 99 | 1012.1 |
| 20260506112442 | 12 | 220 | 0.0 | 0.0 | 0.00 | 0.03 | 0.03 | 99 | 1011.9 |
| 20260506111938 | 11 | 215 | 0.0 | 0.0 | 0.00 | 0.03 | 0.03 | 99 | 1012.1 |
| 20260506111437 | 11 | 218 | 0.0 | 0.0 | 0.00 | 0.03 | 0.03 | 99 | 1012.1 |
| 20260506110933 | 11 | 214 | 0.0 | 0.0 | 0.00 | 0.03 | 0.03 | 99 | 1012.1 |
| 20260506110431 | 11 | 217 | 0.0 | 0.0 | 0.00 | 0.03 | 0.03 | 99 | 1012.4 |
| 20260506105927 | 11 | 226 | 0.0 | 0.0 | 0.00 | 0.03 | 0.03 | 99 | 1012.1 |
| 20260506105424 | 11 | 226 | 0.0 | 1.6 | 0.00 | 0.03 | 0.03 | 99 | 1012.0 |
| 20260506104921 | 11 | 226 | 0.0 | 0.0 | 0.00 | 0.03 | 0.03 | 99 | 1012.0 |
| 20260506104419 | 11 | 226 | 0.0 | 0.0 | 0.00 | 0.03 | 0.03 | 99 | 1012.0 |
| 20260506103917 | 11 | 226 | 0.0 | 0.0 | 0.00 | 0.03 | 0.03 | 99 | 1012.2 |
| 20260506103414 | 11 | 226 | 0.0 | 0.0 | 0.00 | 0.03 | 0.03 | 99 | 1012.0 |
| 20260506102911 | 11 | 226 | 0.0 | 0.0 | 0.00 | 0.03 | 0.03 | 99 | 1012.0 |
| 20260506102409 | 11 | 226 | 0.0 | 0.0 | 0.00 | 0.03 | 0.03 | 99 | 1012.0 |
| 20260506101906 | 10 | 226 | 0.0 | 0.0 | 0.00 | 0.03 | 0.03 | 99 | 1011.8 |
| 20260506101402 | 10 | 226 | 0.0 | 0.0 | 0.00 | 0.03 | 0.03 | 99 | 1012.1 |
| 20260506100859 | 10 | 226 | 0.0 | 0.0 | 0.00 | 0.03 | 0.03 | 99 | 1012.0 |
| 20260506100358 | 10 | 226 | 0.0 | 0.0 | 0.00 | 0.03 | 0.03 | 99 | 1011.8 |
| 20260506095856 | 10 | 226 | 0.0 | 0.0 | 0.00 | 0.03 | 0.03 | 99 | 1011.9 |
| 20260506095354 | 10 | 226 | 0.0 | 0.0 | 0.00 | 0.03 | 0.03 | 99 | 1012.0 |
| 20260506094851 | 10 | 226 | 0.0 | 0.0 | 0.00 | 0.03 | 0.03 | 99 | 1011.9 |
| 20260506094350 | 10 | 226 | 0.0 | 0.0 | 0.00 | 0.03 | 0.03 | 99 | 1011.9 |
| 20260506093847 | 10 | 226 | 0.0 | 0.0 | 0.00 | 0.03 | 0.03 | 99 | 1011.9 |
| 20260506093344 | 10 | 226 | 0.0 | 0.0 | 0.00 | 0.03 | 0.03 | 99 | 1012.0 |
| 20260506092842 | 10 | 226 | 0.0 | 0.0 | 0.00 | 0.03 | 0.03 | 99 | 1012.2 |
| 20260506092339 | 10 | 226 | 0.0 | 0.0 | 0.00 | 0.03 | 0.03 | 99 | 1011.9 |
| 20260506091836 | 10 | 226 | 0.0 | 0.0 | 0.00 | 0.03 | 0.03 | 99 | 1011.9 |
| 20260506091334 | 10 | 226 | 0.0 | 0.0 | 0.00 | 0.03 | 0.03 | 99 | 1012.1 |
| 20260506090831 | 10 | 226 | 0.0 | 0.0 | 0.00 | 0.03 | 0.03 | 99 | 1011.9 |
| 20260506090329 | 11 | 226 | 0.0 | 0.0 | 0.00 | 0.03 | 0.03 | 99 | 1012.2 |
| 20260506085825 | 11 | 226 | 0.0 | 0.0 | 0.00 | 0.03 | 0.03 | 99 | 1012.0 |
| 20260506085321 | 11 | 226 | 0.0 | 0.0 | 0.00 | 0.03 | 0.03 | 99 | 1012.0 |
| 20260506084817 | 11 | 226 | 0.0 | 0.0 | 0.00 | 0.03 | 0.03 | 99 | 1012.2 |
| 20260506084314 | 11 | 226 | 0.0 | 0.0 | 0.00 | 0.03 | 0.03 | 99 | 1012.4 |
| 20260506083811 | 11 | 226 | 0.0 | 0.0 | 0.00 | 0.03 | 0.03 | 99 | 1012.0 |
| 20260506083308 | 11 | 226 | 0.0 | 0.0 | 0.00 | 0.03 | 0.03 | 99 | 1012.0 |
| 20260506082806 | 11 | 226 | 0.0 | 0.0 | 0.00 | 0.03 | 0.03 | 99 | 1012.3 |
| 20260506082304 | 11 | 226 | 0.0 | 0.0 | 0.00 | 0.03 | 0.03 | 99 | 1012.0 |
| 20260506081759 | 11 | 226 | 0.0 | 0.0 | 0.00 | 0.03 | 0.03 | 99 | 1012.2 |
| 20260506081256 | 11 | 226 | 0.0 | 0.0 | 0.00 | 0.03 | 0.03 | 99 | 1012.0 |
| 20260506080754 | 11 | 226 | 0.0 | 0.0 | 0.00 | 0.03 | 0.03 | 99 | 1012.2 |
| 20260506080250 | 11 | 226 | 0.0 | 0.0 | 0.00 | 0.03 | 0.03 | 99 | 1012.0 |
| 20260506073234 | 12 | 227 | 0.0 | 0.0 | 0.00 | 0.03 | 0.03 | 99 | 1012.1 |
| 20260506072731 | 12 | 227 | 0.0 | 0.0 | 0.00 | 0.03 | 0.03 | 99 | 1012.1 |
| 20260506072229 | 12 | 227 | 0.0 | 0.0 | 0.00 | 0.03 | 0.03 | 99 | 1012.3 |
| 20260506071726 | 12 | 227 | 0.0 | 0.0 | 0.00 | 0.03 | 0.03 | 99 | 1012.0 |
| 20260506071224 | 12 | 227 | 0.0 | 0.0 | 0.00 | 0.03 | 0.03 | 99 | 1012.0 |
| 20260506070720 | 12 | 227 | 0.0 | 0.0 | 0.00 | 0.03 | 0.03 | 99 | 1011.7 |
| 20260506070218 | 12 | 227 | 0.0 | 0.0 | 0.00 | 0.03 | 0.03 | 99 | 1011.8 |
| 20260506062155 | 12 | 221 | 0.0 | 0.0 | 0.00 | 0.03 | 0.03 | 99 | 1012.0 |
| 20260506061650 | 12 | 221 | 0.0 | 0.0 | 0.00 | 0.03 | 0.03 | 99 | 1012.0 |
| 20260506061148 | 12 | 221 | 0.0 | 0.0 | 0.00 | 0.03 | 0.03 | 99 | 1012.0 |
| 20260506060647 | 12 | 221 | 0.0 | 0.0 | 0.00 | 0.03 | 0.03 | 99 | 1012.2 |
| 20260506060143 | 12 | 221 | 0.0 | 0.0 | 0.00 | 0.03 | 0.03 | 99 | 1012.1 |
| 20260506051115 | 12 | 221 | 0.0 | 0.0 | 0.00 | 0.03 | 0.03 | 99 | 1011.9 |
| 20260506050613 | 12 | 221 | 0.0 | 0.0 | 0.00 | 0.03 | 0.03 | 99 | 1011.8 |
| 20260506050110 | 12 | 221 | 0.0 | 0.0 | 0.00 | 0.03 | 0.03 | 99 | 1011.9 |
| 20260506045103 | 12 | 221 | 0.0 | 0.0 | 0.00 | 0.03 | 0.03 | 99 | 1012.0 |
| 20260506044602 | 12 | 221 | 0.0 | 0.0 | 0.00 | 0.03 | 0.03 | 99 | 1011.8 |
| 20260506044058 | 12 | 221 | 0.0 | 0.0 | 0.00 | 0.03 | 0.03 | 99 | 1011.9 |
| 20260506043555 | 12 | 221 | 0.0 | 0.0 | 0.00 | 0.03 | 0.03 | 99 | 1012.1 |
| 20260506043054 | 12 | 221 | 0.0 | 0.0 | 0.00 | 0.03 | 0.03 | 99 | 1011.7 |
| 20260506042552 | 12 | 221 | 0.0 | 0.0 | 0.00 | 0.03 | 0.03 | 99 | 1011.9 |
| 20260506042050 | 12 | 221 | 0.0 | 0.0 | 0.18 | 0.03 | 0.03 | 99 | 1011.9 |
| 20260506041548 | 12 | 221 | 0.0 | 0.0 | 0.18 | 0.03 | 0.03 | 99 | 1012.0 |
| 20260506041045 | 12 | 221 | 0.0 | 0.0 | 0.00 | 0.00 | 0.00 | 99 | 1012.0 |
| 20260506040543 | 12 | 221 | 0.0 | 0.0 | 0.00 | 0.00 | 0.00 | 99 | 1011.9 |
| 20260506040038 | 12 | 221 | 0.0 | 0.0 | 0.00 | 0.28 | 0.28 | 99 | 1011.8 |
| 20260506035536 | 12 | 221 | 0.0 | 0.0 | 0.00 | 0.28 | 0.28 | 99 | 1011.7 |
| 20260506035032 | 12 | 221 | 0.0 | 0.0 | 0.00 | 0.28 | 0.28 | 99 | 1011.9 |
| 20260506034530 | 12 | 221 | 0.0 | 0.0 | 0.00 | 0.28 | 0.28 | 99 | 1011.8 |
| 20260506034026 | 12 | 220 | 0.0 | 0.0 | 0.00 | 0.28 | 0.28 | 99 | 1011.8 |
| 20260506033524 | 12 | 221 | 0.0 | 0.0 | 0.00 | 0.28 | 0.28 | 99 | 1011.9 |
| 20260506033021 | 12 | 221 | 0.0 | 0.0 | 0.00 | 0.28 | 0.28 | 99 | 1011.7 |
| 20260506032518 | 12 | 221 | 0.0 | 0.0 | 0.00 | 0.28 | 0.28 | 99 | 1011.8 |
| 20260506032015 | 12 | 221 | 0.0 | 0.0 | 0.00 | 0.28 | 0.28 | 99 | 1011.9 |
| 20260506031512 | 12 | 221 | 0.0 | 0.0 | 0.00 | 0.28 | 0.28 | 99 | 1011.5 |
| 20260506031010 | 12 | 221 | 0.0 | 0.0 | 0.00 | 0.28 | 0.28 | 99 | 1011.9 |
| 20260506030508 | 12 | 221 | 0.0 | 0.0 | 0.00 | 0.28 | 0.28 | 99 | 1012.1 |
| 20260506030004 | 12 | 221 | 0.0 | 0.0 | 0.00 | 0.28 | 0.28 | 99 | 1012.0 |
| 20260506025501 | 12 | 221 | 0.0 | 0.0 | 0.00 | 0.28 | 0.28 | 99 | 1011.7 |
| 20260506024957 | 12 | 221 | 0.0 | 0.0 | 0.00 | 0.28 | 0.28 | 99 | 1011.8 |
| 20260506024454 | 12 | 221 | 0.0 | 0.0 | 0.00 | 0.28 | 0.28 | 99 | 1011.7 |
| 20260506023950 | 12 | 221 | 0.0 | 0.0 | 0.00 | 0.28 | 0.28 | 99 | 1011.9 |
| 20260506023447 | 12 | 221 | 0.0 | 0.0 | 0.00 | 0.28 | 0.28 | 99 | 1011.6 |
| 20260506022944 | 12 | 221 | 0.0 | 0.0 | 0.00 | 0.28 | 0.28 | 99 | 1011.6 |
| 20260506022442 | 12 | 221 | 0.0 | 0.0 | 0.00 | 0.28 | 0.28 | 99 | 1011.7 |
| 20260506021939 | 12 | 221 | 0.0 | 0.0 | 0.00 | 0.28 | 0.28 | 99 | 1011.6 |
| 20260506021436 | 12 | 221 | 0.0 | 0.0 | 0.00 | 0.28 | 0.28 | 99 | 1011.6 |